Location: Dresden
(51.0300°N, 13.7800°E)
Time: 05:50:42
(UTC+01:00)

SARAL - Visible Passes

Search period start: 19 January 2026 00:00
Search period end: 29 January 2026 00:00
Orbit: 781 x 784 km, 98.6° (Epoch: 18 January)

Date Brightness Start Highest point End Pass type
(mag) Time Alt. Az. Time Alt. Az. Time Alt. Az.
19 Jan ? 03:22:41 10° E 03:25:24 14° NE 03:25:51 14° NE visible
19 Jan ? 04:58:44 10° SSE 05:03:52 71° ENE 05:06:26 30° N visible
19 Jan ? 06:40:01 10° SW 06:43:43 20° W 06:47:00 12° NW visible
19 Jan ? 17:06:10 10° NE 17:09:29 17° E 17:12:47 10° SE visible
19 Jan ? 18:44:16 10° NNE 18:49:28 82° WNW 18:54:38 10° SSW visible
19 Jan ? 20:24:54 10° NNW 20:28:03 17° NW 20:31:13 10° W visible
20 Jan ? 04:27:27 10° SE 04:32:15 41° ENE 04:34:30 27° NNE visible
20 Jan ? 06:06:58 10° SSW 06:11:39 35° W 06:15:05 17° NW visible
20 Jan ? 18:12:34 10° NNE 18:17:41 57° E 18:22:46 10° S visible
20 Jan ? 19:52:26 10° N 19:56:42 27° WNW 20:00:57 10° WSW visible
21 Jan ? 03:56:40 10° ESE 04:00:47 25° ENE 04:02:35 20° NNE visible
21 Jan ? 05:34:38 10° S 05:39:45 62° WSW 05:43:10 21° NNW visible
21 Jan ? 17:41:07 10° NNE 17:45:44 32° E 17:50:21 10° SSE visible
21 Jan ? 19:20:19 10° N 19:25:13 44° WNW 19:30:05 10° SW visible
22 Jan ? 03:26:32 10° E 03:29:27 15° NE 03:30:43 14° NE visible
22 Jan ? 05:02:50 10° SSE 05:07:58 76° ENE 05:11:18 23° N visible
22 Jan ? 06:44:22 10° SW 06:47:54 18° W 06:51:27 10° NW visible
22 Jan ? 17:10:07 10° NE 17:13:39 18° E 17:17:10 10° SE visible
22 Jan ? 18:48:24 10° NNE 18:53:35 77° WNW 18:58:45 10° SSW visible
22 Jan ? 20:29:08 10° NNW 20:32:07 16° NW 20:35:04 10° W visible
23 Jan ? 04:31:29 10° SE 04:36:21 43° ENE 04:39:28 21° N visible
23 Jan ? 06:11:13 10° SSW 06:15:48 32° W 06:20:03 12° NW visible
23 Jan ? 18:16:39 10° NNE 18:21:48 62° E 18:26:56 10° S visible
23 Jan ? 19:56:38 10° N 20:00:47 25° WNW 20:04:55 10° WSW visible
24 Jan ? 04:00:38 10° ESE 04:04:51 26° ENE 04:07:40 17° NNE visible
24 Jan ? 05:38:48 10° S 05:43:52 58° WSW 05:48:15 14° NNW visible
24 Jan ? 17:45:10 10° NNE 17:49:54 34° E 17:54:35 10° SSE visible
24 Jan ? 19:24:28 10° N 19:29:19 41° WNW 19:34:08 10° SW visible
25 Jan ? 03:30:23 10° E 03:33:30 16° NE 03:35:56 12° NNE visible
25 Jan ? 05:06:55 10° SSE 05:12:05 81° ENE 05:16:31 14° NNW visible
25 Jan ? 06:48:45 10° SW 06:52:04 17° W 06:55:24 10° NW visible
25 Jan ? 18:52:31 10° NNE 18:57:42 71° WNW 19:02:50 10° SSW visible
25 Jan ? 20:33:24 10° NNW 20:36:10 15° NW 20:38:55 10° W visible
26 Jan ? 04:35:32 10° SE 04:40:26 47° ENE 04:44:52 13° N visible
26 Jan ? 06:15:27 10° SSW 06:19:57 30° W 06:24:30 10° NNW visible
26 Jan ? 18:20:46 10° NNE 18:25:56 66° ESE 18:31:05 10° S visible
26 Jan ? 20:00:49 10° N 20:04:51 23° WNW 20:08:52 10° WSW visible
27 Jan ? 04:04:36 10° ESE 04:08:56 28° ENE 04:13:16 10° N visible
27 Jan ? 05:42:58 10° S 05:48:00 53° W 05:53:05 10° NNW visible
27 Jan ? 17:49:13 10° NNE 17:54:02 37° E 17:58:49 10° SSE visible
27 Jan ? 19:28:37 10° N 19:33:24 38° WNW 19:38:09 10° SW visible
28 Jan ? 03:34:16 10° E 03:37:34 17° NE 03:40:52 10° NNE visible
28 Jan ? 05:11:02 10° SSE 05:16:12 87° ENE 05:21:24 10° NNW visible
28 Jan ? 06:53:10 10° SW 06:56:14 16° W 06:59:20 10° NW visible
28 Jan ? 18:56:39 10° N 19:01:48 66° WNW 19:06:55 10° SSW visible
28 Jan ? 20:37:41 10° NNW 20:40:13 14° NW 20:42:44 10° W visible
